SR5NLK-1 Weather Reports


Display with metric or nautical units.
time (UTC)temp
F
wind
direction
speed
MPH
gust
MPH
rain 1hr
in
rain 24hr
in
rain mn
in
humidity
%
barometer
mb
20260506232729 62 157 0.0 0.0 0.00 0.00 0.00 66 1007.3
20260506232428 62 112 0.0 1.0 0.00 0.00 0.00 66 994.7
20260506232229 62 112 0.0 2.0 0.00 0.00 0.00 66 977.9
20260506231729 62 112 0.0 2.0 0.00 0.00 0.00 66 1001.0
20260506231229 62 112 1.0 2.0 0.00 0.00 0.00 66 1039.7
20260506230729 62 112 1.0 2.0 0.00 0.00 0.00 66 1052.2
20260506230229 62 135 1.0 1.0 0.00 0.00 0.00 66 1090.9
20260506225729 62 112 2.0 3.0 0.00 0.00 0.00 66 1045.9
20260506225229 62 135 0.0 4.0 0.00 0.00 0.00 66 952.9
20260506225128 62 135 0.0 4.0 0.00 0.00 0.00 66 1007.3
20260506224729 62 112 0.0 4.0 0.00 0.00 0.00 66 1050.8
20260506224229 62 112 2.0 4.0 0.00 0.00 0.00 66 959.2
20260506223729 62 112 2.0 4.0 0.00 0.00 0.00 66 1010.3
20260506223229 62 135 2.0 4.0 0.00 0.00 0.00 66 1049.1
20260506222730 62 135 2.0 3.0 0.00 0.00 0.00 66 1019.8
20260506222229 62 112 1.0 4.0 0.00 0.00 0.00 66 1097.2
20260506221828 62 135 3.0 3.0 0.00 0.00 0.00 66 1019.9
20260506221729 62 112 3.0 3.0 0.00 0.00 0.00 66 1049.1
20260506221229 61 135 2.0 2.0 0.00 0.00 0.00 66 1045.9
20260506220729 61 112 0.0 2.0 0.00 0.00 0.00 66 1052.2
20260506220229 61 157 0.0 4.0 0.00 0.00 0.00 66 1007.3
20260506215729 61 112 2.0 3.0 0.00 0.00 0.00 66 1046.0
20260506215229 61 112 1.0 1.0 0.00 0.00 0.00 66 1013.5
20260506214729 61 112 0.0 0.0 0.00 0.00 0.00 66 1039.7
20260506214528 61 135 0.0 0.0 0.00 0.00 0.00 65 1058.5
20260506214229 61 135 0.0 1.0 0.00 0.00 0.00 65 984.1
20260506213729 61 112 0.0 0.0 0.00 0.00 0.00 65 1013.5
20260506213229 61 45 0.0 0.0 0.00 0.00 0.00 64 962.3
20260506212729 61 45 0.0 0.0 0.00 0.00 0.00 64 1016.6
20260506212229 62 112 0.0 0.0 0.00 0.00 0.00 64 1100.3
20260506211729 62 112 0.0 1.0 0.00 0.00 0.00 63 1052.1
20260506211228 62 135 0.0 0.0 0.00 0.00 0.00 63 1016.6
20260506210729 62 112 0.0 2.0 0.00 0.00 0.00 63 1070.9
20260506210229 62 90 0.0 2.0 0.00 0.00 0.00 63 967.4
20260506205729 62 112 2.0 3.0 0.00 0.00 0.00 63 1055.4
20260506205229 63 135 3.0 3.0 0.00 0.00 0.00 62 1094.0
20260506205214 63 112 0.0 2.0 0.00 0.00 0.00 61 1045.9
20260506204729 63 112 1.0 3.0 0.00 0.00 0.00 62 971.7
20260506204229 63 112 0.0 2.0 0.00 0.00 0.00 61 1045.9
20260506203928 63 112 1.0 2.0 0.00 0.00 0.00 61 1049.1
20260506203729 63 135 2.0 2.0 0.00 0.00 0.00 61 1001.0
20260506203229 64 112 0.0 0.0 0.00 0.00 0.00 60 1010.4
20260506202729 64 135 0.0 2.0 0.00 0.00 0.00 60 1061.6
20260506202229 64 112 1.0 2.0 0.00 0.00 0.00 60 1055.4
20260506201729 64 90 0.0 2.0 0.00 0.00 0.00 59 1026.0
20260506201229 64 157 0.0 1.0 0.00 0.00 0.00 59 1095.8
20260506200729 65 112 0.0 1.0 0.00 0.00 0.00 59 1087.8
20260506200628 65 112 0.0 1.0 0.00 0.00 0.00 59 968.6
20260506200229 65 135 0.0 2.0 0.00 0.00 0.00 59 1025.9
20260506195729 65 112 0.0 1.0 0.00 0.00 0.00 58 1090.9
20260506195229 65 135 0.0 2.0 0.00 0.00 0.00 58 968.6
20260506194729 65 90 1.0 2.0 0.00 0.00 0.00 57 1052.2
20260506194230 65 112 2.0 2.0 0.00 0.00 0.00 57 968.6
20260506193729 66 135 0.0 0.0 0.00 0.00 0.00 56 956.0
20260506193328 66 112 0.0 0.0 0.00 0.00 0.00 56 1062.5
20260506193230 66 112 0.0 0.0 0.00 0.00 0.00 56 1052.1
20260506192729 66 112 0.0 0.0 0.00 0.00 0.00 55 1007.3
20260506192229 66 135 0.0 1.0 0.00 0.00 0.00 55 964.0
20260506191730 66 112 0.0 2.0 0.00 0.00 0.00 55 1102.0
20260506191229 66 90 2.0 2.0 0.00 0.00 0.00 54 1052.2
20260506190730 67 112 0.0 1.0 0.00 0.00 0.00 54 1042.8
20260506190230 67 112 0.0 0.0 0.00 0.00 0.00 53 968.6
20260506190029 67 135 0.0 0.0 0.00 0.00 0.00 53 1046.0
20260506185730 67 135 0.0 2.0 0.00 0.00 0.00 53 1046.0
20260506185231 68 135 2.0 2.0 0.00 0.00 0.00 52 1109.7
20260506184730 68 90 0.0 2.0 0.00 0.00 0.00 51 1007.3
20260506184230 68 112 2.0 2.0 0.00 0.00 0.00 51 1090.9
20260506183730 69 22 0.0 1.0 0.00 0.00 0.00 50 1042.8
20260506183230 69 337 0.0 2.0 0.00 0.00 0.00 50 1094.1
20260506182729 69 315 0.0 2.0 0.00 0.00 0.00 50 968.5
20260506182230 70 337 2.0 2.0 0.00 0.00 0.00 49 1087.8
20260506181730 70 315 0.0 2.0 0.00 0.00 0.00 48 965.4
20260506181230 71 292 0.0 2.0 0.00 0.00 0.00 48 1095.2
20260506180730 71 270 0.0 3.0 0.00 0.00 0.00 48 1097.2
20260506180230 72 315 3.0 5.0 0.00 0.00 0.00 47 1002.2
20260506175730 72 315 3.0 5.0 0.00 0.00 0.00 47 1013.1
20260506175429 73 315 4.0 5.0 0.00 0.00 0.00 47 997.8
20260506175230 73 315 5.0 6.0 0.00 0.00 0.00 47 1052.6
20260506174730 73 315 6.0 8.0 0.00 0.00 0.00 47 1039.7
20260506174230 73 292 3.0 7.0 0.00 0.00 0.00 46 1097.2
20260506173730 73 337 5.0 7.0 0.00 0.00 0.00 46 1049.1
20260506173230 74 292 4.0 6.0 0.00 0.00 0.00 46 1078.2
20260506172730 74 315 6.0 7.0 0.00 0.00 0.00 46 1001.0
20260506172230 74 292 7.0 7.0 0.00 0.00 0.00 46 997.9
20260506172129 74 292 5.0 8.0 0.00 0.00 0.00 46 1100.3
20260506171730 74 247 3.0 8.0 0.00 0.00 0.00 46 1090.9
20260506171230 74 292 3.0 8.0 0.00 0.00 0.00 46 1019.7
20260506170730 74 292 5.0 8.0 0.00 0.00 0.00 46 1079.2
20260506170230 74 315 8.0 8.0 0.00 0.00 0.00 46 920.5
20260506165730 74 270 2.0 10.0 0.00 0.00 0.00 45 1013.5
20260506165230 75 315 10.0 10.0 0.00 0.00 0.00 45 929.9
20260506164829 75 315 7.0 12.0 0.00 0.00 0.00 44 1016.5
20260506164730 75 292 12.0 12.0 0.00 0.00 0.00 44 1049.1
20260506164230 76 292 7.0 11.0 0.00 0.00 0.00 44 1007.2
20260506163730 76 270 6.0 9.0 0.00 0.00 0.00 43 1005.5
20260506163230 77 315 9.0 9.0 0.00 0.00 0.00 42 1019.8
20260506162730 77 270 3.0 15.0 0.00 0.00 0.00 42 965.4
20260506162230 77 270 6.0 13.0 0.00 0.00 0.00 42 971.7
20260506161730 78 292 6.0 10.0 0.00 0.00 0.00 42 923.6
20260506161529 78 270 5.0 9.0 0.00 0.00 0.00 42 929.8
20260506161230 77 0 2.0 11.0 0.00 0.00 0.00 42 952.2
20260506160730 77 0 4.0 11.0 0.00 0.00 0.00 42 1013.5
20260506160230 77 292 3.0 14.0 0.00 0.00 0.00 41 998.5
20260506155730 78 292 9.0 12.0 0.00 0.00 0.00 41 1001.0
20260506155230 78 292 3.0 6.0 0.00 0.00 0.00 41 1052.2
20260506154730 78 270 4.0 10.0 0.00 0.00 0.00 41 924.8
20260506154237 77 270 7.0 14.0 0.00 0.00 0.00 1046.0
20260506154229 77 270 7.0 14.0 0.00 0.00 0.00 42 1046.0
20260506153730 77 270 4.0 10.0 0.00 0.00 0.00 41 1039.6
20260506153230 77 270 3.0 10.0 0.00 0.00 0.00 41 1064.7
20260506152730 78 247 3.0 14.0 0.00 0.00 0.00 40 1049.1
20260506152230 79 247 7.0 13.0 0.00 0.00 0.00 39 1015.2
20260506151730 79 270 12.0 12.0 0.00 0.00 0.00 39 1046.0
20260506151230 79 270 6.0 14.0 0.00 0.00 0.00 38 1052.2
20260506150929 80 315 6.0 14.0 0.00 0.00 0.00 38 1042.8
20260506150730 80 270 7.0 13.0 0.00 0.00 0.00 37 1007.3
20260506150230 81 247 11.0 12.0 0.00 0.00 0.00 37 1030.3
20260506145730 82 270 8.0 8.0 0.00 0.00 0.00 36 1010.4
20260506145230 82 270 2.0 9.0 0.00 0.00 0.00 36 974.8
20260506144730 83 225 7.0 14.0 0.00 0.00 0.00 35 933.7
20260506144230 84 270 9.0 12.0 0.00 0.00 0.00 35 959.7
20260506143730 83 202 8.0 10.0 0.00 0.00 0.00 35 977.3
20260506143629 83 202 6.0 12.0 0.00 0.00 0.00 35 1036.6
20260506143230 83 270 7.0 13.0 0.00 0.00 0.00 35 1014.3
20260506142730 82 202 12.0 16.0 0.00 0.00 0.00 36 932.8
20260506142230 81 202 14.0 17.0 0.00 0.00 0.00 36 1094.1
20260506141730 82 202 9.0 19.0 0.00 0.00 0.00 35 1006.6
20260506141230 82 202 10.0 17.0 0.00 0.00 0.00 35 914.2
20260506140731 84 202 12.0 18.0 0.00 0.00 0.00 34 1023.3
20260506140329 84 270 15.0 19.0 0.00 0.00 0.00 34 962.3
20260506140230 84 270 11.0 19.0 0.00 0.00 0.00 34 1016.7
20260506135730 85 157 7.0 13.0 0.00 0.00 0.00 34 957.5
20260506135230 84 270 4.0 12.0 0.00 0.00 0.00 34 1055.4
20260506134730 84 202 12.0 17.0 0.00 0.00 0.00 35 913.3
20260506134230 83 270 6.0 14.0 0.00 0.00 0.00 35 1054.6
20260506133730 82 202 12.0 18.0 0.00 0.00 0.00 36 994.7
20260506133230 82 225 7.0 16.0 0.00 0.00 0.00 36 1041.8
20260506133029 82 270 12.0 15.0 0.00 0.00 0.00 36 1022.6
20260506132730 82 247 12.0 18.0 0.00 0.00 0.00 35 1013.1
20260506132230 82 225 9.0 18.0 0.00 0.00 0.00 35 1016.6
20260506131730 83 180 12.0 12.0 0.00 0.00 0.00 35 1059.3
20260506131230 82 247 4.0 17.0 0.00 0.00 0.00 35 962.0
20260506130730 82 270 6.0 14.0 0.00 0.00 0.00 35 1015.2
20260506130230 83 247 4.0 17.0 0.00 0.00 0.00 35 973.7
20260506125729 83 180 11.0 16.0 0.00 0.00 0.00 35 1042.8
20260506125230 82 225 2.0 19.0 0.00 0.00 0.00 35 1052.2
20260506124730 82 247 6.0 13.0 0.00 0.00 0.00 35 991.6
20260506124230 82 202 12.0 17.0 0.00 0.00 0.00 35 1044.4
20260506123730 82 247 7.0 12.0 0.00 0.00 0.00 35 1034.8
20260506123230 82 202 8.0 17.0 0.00 0.00 0.00 35 1016.4
20260506122730 82 247 8.0 11.0 0.00 0.00 0.00 35 959.6
20260506122429 82 202 9.0 16.0 0.00 0.00 0.00 35 1000.6
20260506122231 83 225 12.0 16.0 0.00 0.00 0.00 34 1039.7
20260506121730 83 202 5.0 15.0 0.00 0.00 0.00 34 1033.7
20260506121230 83 292 8.0 12.0 0.00 0.00 0.00 34 1028.3
20260506120730 83 202 9.0 14.0 0.00 0.00 0.00 34 1010.4
20260506120230 84 270 10.0 15.0 0.00 0.00 0.00 34 1049.1
20260506115730 84 247 6.0 19.0 0.00 0.00 0.00 33 1016.7
20260506115230 85 202 10.0 18.0 0.00 0.00 0.00 33 985.3
20260506115129 85 202 7.0 18.0 0.00 0.00 0.00 33 1075.2
20260506114730 85 202 2.0 15.0 0.00 0.00 0.00 33 971.1
20260506114230 84 225 4.0 17.0 0.00 0.00 0.00 34 1041.0
20260506113730 83 270 6.0 11.0 0.00 0.00 0.00 34 1042.8
20260506113230 83 225 7.0 18.0 0.00 0.00 0.00 33 1046.0
20260506112730 84 202 12.0 20.0 0.00 0.00 0.00 33 1004.1
20260506112230 84 157 10.0 15.0 0.00 0.00 0.00 33 1033.4
20260506111829 84 202 6.0 16.0 0.00 0.00 0.00 33 1069.5
20260506111730 84 135 3.0 16.0 0.00 0.00 0.00 33 969.8
20260506111230 84 157 7.0 18.0 0.00 0.00 0.00 33 1074.0
20260506110731 83 225 10.0 20.0 0.00 0.00 0.00 33 1042.8
20260506110230 84 225 10.0 16.0 0.00 0.00 0.00 33 967.6
20260506105730 84 202 6.0 18.0 0.00 0.00 0.00 32 1078.2
20260506105230 84 202 13.0 20.0 0.00 0.00 0.00 32 1042.8
20260506104730 85 202 13.0 15.0 0.00 0.00 0.00 32 965.4
20260506104529 85 247 8.0 15.0 0.00 0.00 0.00 32 976.7
20260506104230 85 270 8.0 10.0 0.00 0.00 0.00 31 1054.3
20260506103730 86 157 10.0 16.0 0.00 0.00 0.00 30 1039.7
20260506103230 86 180 3.0 13.0 0.00 0.00 0.00 30 1046.3
20260506102730 85 180 12.0 18.0 0.00 0.00 0.00 31 1047.7
20260506102230 85 247 6.0 14.0 0.00 0.00 0.00 31 921.5
20260506101730 84 135 8.0 11.0 0.00 0.00 0.00 31 1055.4
20260506101229 84 135 11.0 12.0 0.00 0.00 0.00 30 1051.4
20260506100730 84 225 7.0 16.0 0.00 0.00 0.00 30 972.3
20260506100230 84 157 4.0 13.0 0.00 0.00 0.00 30 1057.5
20260506095730 84 112 0.0 19.0 0.00 0.00 0.00 30 1042.8
20260506095230 84 225 9.0 12.0 0.00 0.00 0.00 30 1013.5
20260506094730 84 247 10.0 11.0 0.00 0.00 0.00 30 1083.7
20260506094230 84 202 10.0 12.0 0.00 0.00 0.00 30 1071.9
20260506093930 84 180 8.0 16.0 0.00 0.00 0.00 29 1039.7
20260506093730 84 202 11.0 16.0 0.00 0.00 0.00 29 1075.2
20260506093230 84 202 7.0 10.0 0.00 0.00 0.00 29 1010.0
20260506092730 85 225 4.0 8.0 0.00 0.00 0.00 29 968.7
20260506092230 85 157 2.0 8.0 0.00 0.00 0.00 29 991.6
20260506091731 86 180 2.0 12.0 0.00 0.00 0.00 28 1053.1
20260506091231 87 202 5.0 12.0 0.00 0.00 0.00 28 1004.5
20260506090731 88 225 6.0 12.0 0.00 0.00 0.00 28 1044.9
20260506090630 88 157 5.0 12.0 0.00 0.00 0.00 28 1046.1
20260506090231 88 135 0.0 8.0 0.00 0.00 0.00 28 1049.1
20260506085731 88 135 7.0 11.0 0.00 0.00 0.00 28 973.8
20260506085231 88 157 6.0 12.0 0.00 0.00 0.00 28 1034.5
20260506084731 88 225 6.0 9.0 0.00 0.00 0.00 29 1042.8
20260506084231 88 180 4.0 8.0 0.00 0.00 0.00 29 1046.0
20260506083731 88 270 4.0 8.0 0.00 0.00 0.00 28 1054.5
20260506083330 88 202 2.0 9.0 0.00 0.00 0.00 28 1035.2
20260506083231 88 157 9.0 9.0 0.00 0.00 0.00 28 1081.5
20260506082731 88 202 4.0 9.0 0.00 0.00 0.00 28 1043.1
20260506082231 89 202 6.0 9.0 0.00 0.00 0.00 27 1023.1
20260506081731 91 180 1.0 5.0 0.00 0.00 0.00 26 1090.9
20260506081231 93 157 2.0 10.0 0.00 0.00 0.00 26 1092.0
20260506080731 94 180 9.0 9.0 0.00 0.00 0.00 26 1048.5
20260506080231 94 247 2.0 6.0 0.00 0.00 0.00 26 1033.0
20260506073231 93 157 5.0 5.0 0.00 0.00 0.00 30 1084.7
20260506072730 92 157 2.0 7.0 0.00 0.00 0.00 29 991.6
20260506072231 93 202 1.0 2.0 0.00 0.00 0.00 30 1016.7
20260506071731 93 202 2.0 3.0 0.00 0.00 0.00 30 1103.3
20260506071237 92 157 0.0 4.0 0.90 0.00 0.00 31 1069.2
20260506071231 92 157 0.0 4.0 0.00 0.00 0.00 31 1069.2
20260506070731 89 225 2.0 4.0 0.00 0.00 0.00 33 1018.9
20260506070231 87 112 1.0 3.0 0.00 0.00 0.00 33 1017.5
20260506062238 84 135 2.0 4.0 0.00 0.00 0.00 39 1304.9
20260506062231 84 135 2.0 4.0 0.00 0.00 0.00 39 1049.8
20260506062130 84 135 3.0 3.0 0.00 0.00 0.00 39 1072.1
20260506061731 84 45 2.0 6.0 0.00 0.00 0.00 39 1094.0
20260506061231 84 112 4.0 6.0 0.00 0.00 0.00 40 1091.9
20260506060738 83 135 3.0 6.0 0.00 0.00 0.00 41 1056.4
20260506060731 83 135 3.0 6.0 0.00 0.00 0.00 41 1056.4
20260506060231 82 112 2.0 4.0 0.00 0.00 0.00 43 1078.4
20260506051231 68 22 3.0 7.0 0.00 0.00 0.00 58 1055.4
20260506050731 67 22 3.0 8.0 0.00 0.00 0.00 60 1081.5
20260506050231 66 45 3.0 7.0 0.00 0.00 0.00 63 1090.9
20260506044731 62 67 3.0 5.0 0.00 0.00 0.00 74 1039.7
20260506044230 58 22 5.0 7.0 0.00 0.00 0.00 77 988.4
20260506043731 55 22 3.0 8.0 0.00 0.00 0.00 75 1042.8
20260506043231 55 67 6.0 8.0 0.00 0.00 0.00 75 1075.2
20260506042731 55 67 8.0 8.0 0.00 0.00 0.00 74 1094.1
20260506042231 55 90 2.0 7.0 0.00 0.00 0.00 74 1045.9
20260506041731 55 67 7.0 7.0 0.00 0.00 0.00 73 1084.6
20260506041231 56 135 2.0 6.0 0.00 0.00 0.00 73 1046.0
20260506040930 56 112 3.0 9.0 0.00 0.00 0.00 72 1042.8
20260506040731 56 67 3.0 9.0 0.00 0.00 0.00 72 1058.5
20260506040231 57 112 4.0 8.0 0.00 0.00 0.00 73 1087.8
20260506035731 57 67 6.0 8.0 0.00 0.00 0.00 76 1036.5
20260506035231 56 45 2.0 6.0 0.00 0.00 0.00 78 1072.1
20260506034731 55 337 4.0 8.0 0.00 0.00 0.00 80 1082.4
20260506034231 54 45 2.0 5.0 0.00 0.00 0.00 80 1049.1
20260506033731 53 67 2.0 8.0 0.00 0.00 0.00 80 995.3
20260506033630 53 90 4.0 8.0 0.00 0.00 0.00 80 927.0
20260506033231 53 45 6.0 6.0 0.00 0.00 0.00 80 1030.3
20260506032731 53 67 3.0 7.0 0.00 0.00 0.00 80 1090.3
20260506032231 52 112 0.0 10.0 0.00 0.00 0.00 79 1043.1
20260506031731 52 67 10.0 10.0 0.00 0.00 0.00 79 1078.4
20260506031231 52 67 3.0 8.0 0.00 0.00 0.00 79 997.9
20260506030731 52 22 8.0 8.0 0.00 0.00 0.00 78 1055.4
20260506030330 52 45 4.0 7.0 0.00 0.00 0.00 78 1089.8
20260506030231 52 67 4.0 7.0 0.00 0.00 0.00 78 1084.6
20260506025731 52 45 3.0 7.0 0.00 0.00 0.00 77 1075.2
20260506025231 52 22 3.0 7.0 0.00 0.00 0.00 77 1087.8
20260506024731 52 45 3.0 6.0 0.00 0.00 0.00 77 1046.0
20260506024231 52 45 3.0 6.0 0.00 0.00 0.00 76 1084.7
20260506023731 52 45 2.0 7.0 0.00 0.00 0.00 76 1081.4
20260506023231 52 90 1.0 7.0 0.00 0.00 0.00 76 1055.2
20260506023030 52 22 4.0 6.0 0.00 0.00 0.00 76 1008.3
20260506022731 52 45 4.0 6.0 0.00 0.00 0.00 76 1055.4
20260506022231 52 45 1.0 5.0 0.00 0.00 0.00 76 988.4
20260506021731 52 90 4.0 6.0 0.00 0.00 0.00 75 1072.1
20260506021231 52 22 3.0 8.0 0.00 0.00 0.00 75 1078.4
20260506020731 52 22 4.0 7.0 0.00 0.00 0.00 75 1026.6
20260506020231 52 45 1.0 7.0 0.00 0.00 0.00 75 1065.8
20260506015730 52 22 0.0 4.0 0.00 0.00 0.00 75 1078.4
20260506015231 52 45 2.0 7.0 0.00 0.00 0.00 75 1081.5
20260506014732 52 45 2.0 7.0 0.00 0.00 0.00 75 1078.3
20260506014231 52 22 4.0 6.0 0.00 0.00 0.00 75 1036.6
20260506013732 52 45 2.0 6.0 0.00 0.00 0.00 75 1087.8
20260506013231 52 22 2.0 5.0 0.00 0.00 0.00 74 1027.1
20260506012731 53 45 2.0 6.0 0.00 0.00 0.00 74 1065.7
20260506012430 53 45 6.0 6.0 0.00 0.00 0.00 74 1010.4
20260506012231 53 90 2.0 5.0 0.00 0.00 0.00 74 1033.4
20260506011731 53 22 3.0 8.0 0.00 0.00 0.00 74 1075.2
20260506011231 53 45 5.0 9.0 0.00 0.00 0.00 74 994.7
20260506010731 53 45 5.0 10.0 0.00 0.00 0.00 74 1046.0
20260506010231 53 22 3.0 5.0 0.00 0.00 0.00 74 1075.2
20260506005731 53 270 3.0 12.0 0.00 0.00 0.00 75 1062.7
20260506005231 53 90 8.0 11.0 0.00 0.00 0.00 75 1039.7
20260506005130 53 67 6.0 6.0 0.00 0.00 0.00 75 1055.4
20260506004731 53 270 2.0 5.0 0.00 0.00 0.00 75 1042.8
20260506004239 53 22 2.0 11.0 0.00 0.00 0.00 75 1027.1
20260506004231 53 22 2.0 11.0 0.00 0.00 0.00 75 1027.1
20260506003731 54 22 5.0 8.0 0.00 0.00 0.00 75 1012.9
20260506003231 54 67 1.0 6.0 0.00 0.00 0.00 75 1060.3
20260506002731 54 0 2.0 6.0 0.00 0.00 0.00 75 1042.1
20260506002231 54 45 0.0 3.0 0.00 0.00 0.00 75 1053.4
20260506001831 54 45 1.0 6.0 0.00 0.00 0.00 75 1080.8
20260506001731 54 22 1.0 6.0 0.00 0.00 0.00 75 1060.9
20260506001231 54 45 3.0 6.0 0.00 0.00 0.00 75 1043.3
20260506000731 55 0 4.0 4.0 0.00 0.00 0.00 75 989.4
20260506000232 55 0 2.0 5.0 0.00 0.00 0.00 75 1049.0
20260505235732 55 22 2.0 5.0 0.00 0.00 0.00 75 1083.2
20260505235231 55 67 5.0 9.0 0.00 0.00 0.00 75 956.0
20260505234731 55 22 4.0 7.0 0.00 0.00 0.00 75 964.8
20260505234531 55 22 5.0 7.0 0.00 0.00 0.00 75 1032.0
20260505234232 55 90 2.0 8.0 0.00 0.00 0.00 75 1078.4
20260505233732 55 45 3.0 6.0 0.00 0.00 0.00 75 1050.2
20260505233232 56 22 2.0 9.0 0.00 0.00 0.00 75 1081.5